Date,TemperatureHighF,TemperatureAvgF,TemperatureLowF,DewpointHighF,DewpointAvgF,DewpointLowF,HumidityHigh,HumidityAvg,HumidityLow,PressureMaxIn,PressureMinIn,WindSpeedMaxMPH,WindSpeedAvgMPH,GustSpeedMaxMPH,PrecipitationSumIn
2013-11-1,68.8,62.8,55.2,62.7,57.4,45.4,96,83,64,29.76,29.45,13,3,21,0.09
2013-11-2,67.4,53.4,40.8,48.2,43.3,39.2,97,72,41,29.74,29.57,6,1,12,0.00
2013-11-3,51.6,42.2,31.7,44.6,27.9,16.5,81,58,40,30.44,29.74,10,3,20,0.00
2013-11-4,44.5,32.5,23.9,21.6,18.5,16.6,85,58,34,30.69,30.44,6,1,10,0.00
2013-11-5,54.1,39.2,24.3,37.8,29.7,21.2,90,70,48,30.70,30.49,9,1,10,0.00
2013-11-6,62.0,51.0,39.9,49.9,42.9,35.9,91,75,52,30.49,30.03,9,2,14,0.00
2013-11-7,62.1,52.0,40.0,57.3,46.7,31.1,95,83,67,30.03,29.70,9,2,14,0.05
2013-11-8,46.8,38.8,30.3,34.9,29.3,22.4,95,70,43,30.11,29.85,13,2,21,0.00
2013-11-9,47.0,38.7,27.4,31.4,26.8,22.9,86,63,47,30.24,29.99,7,1,11,0.00
2013-11-10,51.1,45.1,39.9,40.2,35.6,29.3,92,70,57,29.98,29.76,11,2,28,0.02
2013-11-11,52.4,45.7,39.1,32.0,28.8,27.0,63,52,41,30.12,29.89,12,3,32,0.00
2013-11-12,49.2,35.6,26.9,36.3,23.0,15.1,79,60,50,30.22,29.88,10,3,17,0.01
2013-11-13,37.2,29.6,24.2,17.2,14.0,10.2,65,53,34,30.32,30.18,10,2,13,0.00
2013-11-14,53.3,39.9,29.9,24.0,20.8,17.0,67,48,31,30.19,30.06,8,2,14,0.00
2013-11-15,60.6,41.5,24.2,33.5,24.0,18.9,84,55,22,30.21,30.09,11,1,16,0.00
2013-11-16,63.2,45.0,34.5,37.2,33.1,31.0,88,66,33,30.29,30.18,5,0,6,0.00
2013-11-17,52.0,45.2,34.3,49.1,41.8,31.2,96,88,80,30.28,29.79,2,0,4,0.00
2013-11-18,64.9,58.3,47.6,59.8,44.7,29.8,98,64,36,29.78,29.52,11,3,19,0.15
2013-11-19,47.2,39.8,31.9,32.0,22.9,17.6,60,51,41,30.32,29.70,17,5,24,0.00
2013-11-20,41.7,30.8,21.6,18.0,16.3,13.4,82,56,32,30.63,30.32,7,1,16,0.00
2013-11-21,46.7,33.1,17.3,33.4,22.4,14.6,91,67,35,30.65,30.37,6,0,10,0.00
2013-11-22,51.9,45.5,41.7,47.7,42.3,33.6,96,89,72,30.37,29.83,4,0,5,0.11
2013-11-23,48.6,39.5,27.3,45.6,26.2,14.4,94,60,42,29.98,29.83,18,4,23,0.00
2013-11-24,27.8,22.7,17.5,15.8,3.9,-4.0,62,45,25,30.26,29.88,22,6,31,0.00
2013-11-25,36.0,25.9,16.4,16.0,7.4,-2.0,53,45,38,30.41,30.26,8,2,15,0.00
2013-11-26,38.5,34.2,30.1,32.6,21.9,13.8,95,62,47,30.32,29.97,10,1,13,0.19
2013-11-27,49.6,42.0,33.8,49.0,39.9,29.0,98,93,74,29.97,29.28,8,2,18,2.52
2013-11-28,36.7,28.6,23.1,29.5,14.9,8.2,75,57,40,30.45,29.56,20,5,30,0.00
2013-11-29,36.2,27.2,21.0,17.9,14.9,11.4,83,61,40,30.73,30.45,8,1,12,0.00
2013-11-30,33.5,23.5,12.6,18.0,13.1,8.9,89,66,44,30.80,30.40,4,0,6,0.00